Theta_e
304 304 305 305 305 305 305 305 305 304 303 302 302 304 297 293 291 303 307 306 302 294 287 290 289 288 290 294 292 293 292 291 292 289 291 289 293 292 292 292 292 293 293 293 292 293 291 293 292 293 294 296 298 300 301 302 301 301 298 300 301 301 294 292 292 296 297 299 301 301 302 301 298 298 300 299 296 297 296 295 297 292 294 292 292 288 294
304 304 304 305 305 305 304 304 304 304 304 302 303 299 295 294 294 296 305 307 302 292 284 285 287 289 292 292 291 294 292 291 290 289 291 290 291 291 292 294 294 292 296 295 292 295 288 294 294 293 296 295 301 301 301 301 299 299 298 296 301 292 296 294 289 289 291 293 296 296 299 299 297 296 298 299 299 299 300 299 301 291 294 294 292 286 293
304 304 304 305 304 305 304 304 305 304 304 304 302 295 297 296 297 297 299 303 299 288 291 288 287 288 288 288 287 289 290 293 293 291 290 293 293 293 294 296 295 294 296 294 295 295 293 292 295 295 296 297 301 300 300 301 301 301 303 305 303 295 296 294 287 284 281 282 283 285 288 293 297 298 297 298 298 298 296 291 294 289 294 295 292 291 302
303 304 304 304 305 305 304 304 304 304 304 304 303 299 296 292 285 291 294 297 296 294 296 293 289 287 287 285 288 290 286 292 294 294 293 295 296 296 294 297 297 294 293 292 292 293 296 294 293 294 294 296 298 300 301 301 301 303 308 305 302 296 299 297 295 291 289 291 294 297 297 296 293 295 296 296 298 299 299 297 292 290 294 292 296 297 302
303 303 303 304 304 304 304 304 304 303 303 304 302 300 297 296 288 288 286 293 293 291 294 291 290 286 289 284 286 284 286 289 291 296 290 297 296 296 296 297 293 293 293 292 292 294 293 295 295 295 295 297 298 300 300 301 302 310 302 305 301 298 294 297 298 296 296 297 296 298 297 295 296 296 295 297 297 298 298 292 291 298 296 289 297 300 299
302 303 303 304 304 304 304 304 304 303 303 304 304 295 298 288 291 291 294 287 285 286 287 289 287 289 287 285 286 284 285 287 286 294 294 296 298 294 296 297 295 294 293 294 290 293 293 294 291 296 296 296 297 296 299 299 304 302 301 303 299 297 291 297 298 297 298 298 298 299 297 297 297 297 297 296 297 298 296 297 298 300 293 291 298 300 299
301 302 303 304 304 304 304 304 304 303 303 303 303 293 297 295 294 294 297 286 290 288 290 290 287 286 286 286 286 284 285 285 292 292 294 291 295 297 289 292 295 295 296 295 292 294 289 289 296 296 295 295 295 294 296 299 302 300 300 301 302 298 294 297 298 297 297 298 299 299 297 297 296 296 297 297 298 298 298 299 299 299 298 299 300 301 300
301 301 302 303 304 304 304 304 304 303 302 305 301 297 292 290 288 287 293 291 288 289 289 287 287 285 289 286 287 285 285 286 293 295 293 290 294 298 293 293 295 296 296 296 293 296 297 296 292 299 297 296 297 295 296 296 299 299 299 300 302 298 292 297 298 295 296 298 299 299 298 297 296 296 297 298 298 298 298 299 300 300 300 300 301 301 300
300 301 302 303 303 304 304 304 304 303 303 301 297 297 298 297 298 295 287 285 290 293 293 291 290 287 287 285 287 285 286 287 294 295 298 296 294 296 294 297 299 300 296 296 299 299 299 298 299 299 299 293 299 295 296 299 296 297 298 300 301 299 294 299 298 291 292 297 297 298 298 298 297 296 297 297 297 296 298 296 300 298 298 300 300 299 299
300 301 302 303 303 303 304 304 304 303 303 300 298 294 300 299 300 298 294 286 291 290 295 295 292 287 291 291 288 288 292 295 297 290 298 300 301 300 299 300 297 297 296 296 301 304 305 304 306 302 301 302 301 301 300 300 298 296 297 300 297 298 297 293 293 289 290 297 298 297 297 296 292 292 296 298 299 299 300 300 301 301 302 298 294 297 304
300 301 302 302 303 303 303 303 304 304 303 298 296 295 297 294 292 293 294 286 291 294 293 293 291 293 297 298 296 298 297 298 297 291 290 300 301 304 303 301 299 296 297 302 306 307 307 308 308 306 303 302 300 301 301 302 300 299 298 298 298 299 298 293 297 288 290 296 297 297 292 285 287 303 308 302 299 299 298 298 300 303 303 301 303 303 305
300 300 301 301 303 303 303 303 303 303 302 302 301 298 300 300 297 295 291 286 288 295 294 291 293 295 295 296 297 297 297 298 298 300 294 297 300 304 303 303 301 292 305 309 309 309 309 309 306 304 303 303 303 301 300 299 299 301 302 299 297 296 296 293 297 291 290 294 295 289 283 286 304 308 310 310 310 304 300 301 301 303 303 304 303 304 308
300 300 301 301 302 302 302 303 302 302 303 303 300 297 302 302 297 293 292 288 288 293 291 294 298 298 298 298 298 299 300 301 303 302 301 299 299 302 302 303 302 303 307 308 310 307 300 297 298 298 298 300 301 300 299 298 298 301 302 301 299 293 293 294 292 293 293 291 290 282 285 300 305 309 307 311 309 309 305 300 303 303 303 304 303 304 307
300 301 301 301 301 301 301 302 302 303 302 302 299 300 302 302 295 293 292 288 288 294 295 297 297 296 297 298 298 299 300 300 302 303 300 303 301 300 303 304 306 309 310 311 308 304 296 296 291 293 294 296 297 295 297 299 300 300 300 300 301 299 297 294 291 295 288 289 290 288 297 300 304 301 305 303 300 302 300 293 299 306 306 305 303 305 307
300 300 301 301 301 301 302 302 302 302 303 303 302 301 302 302 300 295 296 292 287 291 296 289 293 295 297 297 299 298 298 297 298 298 302 304 303 303 303 304 307 309 311 308 300 300 295 293 289 288 290 289 285 287 297 294 299 301 302 301 301 301 295 297 293 289 293 289 288 288 288 286 293 305 310 310 311 308 306 301 297 306 307 308 305 305 306
300 300 300 301 301 301 301 301 302 302 302 302 302 301 302 304 302 299 296 293 290 287 294 298 299 297 296 299 299 298 296 295 297 300 299 301 301 302 305 308 309 311 308 306 302 296 294 290 287 288 286 288 293 291 289 295 294 299 302 302 301 301 301 299 294 291 290 289 287 286 285 288 301 306 308 311 313 311 310 300 294 303 305 307 307 306 308
300 300 300 300 300 300 301 302 302 302 302 302 300 300 300 306 303 299 296 295 294 289 300 302 301 301 299 297 299 297 299 295 299 293 292 296 301 302 304 307 310 310 308 304 301 296 292 290 293 290 293 295 290 288 294 292 291 293 298 300 299 297 295 294 292 290 291 289 288 286 290 290 300 306 310 309 312 314 306 289 289 303 306 308 308 307 311
299 300 300 300 300 300 301 301 301 302 302 303 302 300 301 308 307 303 299 295 291 293 300 301 299 297 296 297 296 300 303 302 301 302 297 299 302 302 302 304 303 307 310 299 300 293 291 291 288 289 288 295 297 296 286 293 289 289 291 293 292 292 292 293 290 291 290 288 289 291 292 300 307 307 309 311 312 308 291 286 297 311 315 312 311 310 313
299 300 300 300 300 300 301 301 301 301 302 302 303 302 303 307 307 305 299 296 295 290 298 302 303 301 304 305 302 303 303 302 301 297 296 295 301 305 304 304 306 299 304 297 302 292 291 292 298 295 291 295 297 288 295 290 289 295 295 291 292 291 291 292 293 290 290 290 289 289 292 302 308 309 309 312 306 291 290 303 311 313 314 315 313 310 314
299 299 299 300 300 300 300 301 301 302 302 302 302 299 302 306 308 305 299 294 295 293 297 301 303 300 304 301 299 299 301 302 302 299 297 293 303 306 302 296 303 304 301 303 292 297 291 289 294 296 292 295 297 301 294 293 300 294 293 295 291 292 288 289 289 291 292 291 289 287 284 296 312 309 307 309 297 296 308 312 312 314 316 316 316 316 317
299 299 299 299 300 300 301 301 301 301 302 302 301 300 299 307 308 307 306 300 294 290 297 307 304 302 303 302 304 303 302 299 300 299 300 302 306 302 289 292 300 300 296 297 291 293 293 292 297 294 298 295 297 299 290 292 297 303 301 296 295 299 290 290 292 296 289 288 287 287 296 304 312 307 297 305 311 314 316 313 312 315 317 316 316 319 320
298 299 299 299 300 300 300 301 301 302 302 302 301 302 300 305 307 307 307 304 296 293 298 303 304 302 304 305 306 307 305 304 305 306 303 300 307 305 304 305 304 304 303 305 299 296 300 301 301 294 293 296 300 294 296 291 289 299 304 301 290 301 296 299 292 297 293 291 295 301 311 312 314 315 312 313 314 315 316 316 314 315 314 319 317 317 319
298 298 299 299 300 300 300 301 301 301 301 302 302 301 299 302 305 308 306 299 302 303 305 304 305 305 306 306 309 310 310 310 309 309 307 304 300 304 304 303 303 309 309 307 301 300 300 299 294 301 297 298 296 294 297 297 293 298 294 302 301 305 306 310 305 300 304 308 309 309 306 311 312 313 315 313 313 315 316 316 314 315 317 318 318 317 318
298 298 299 299 299 300 300 300 301 301 301 302 301 301 300 303 304 305 303 302 300 297 302 308 304 298 302 303 307 311 310 310 310 311 313 311 300 299 306 308 307 309 309 309 308 302 301 299 300 303 295 301 302 294 291 290 293 300 299 297 301 305 304 302 297 303 297 292 306 308 308 310 312 312 313 315 315 315 316 316 315 316 318 318 319 320 319
298 298 299 299 299 300 300 300 301 301 301 301 302 303 304 305 308 306 301 293 296 296 292 297 299 304 307 309 310 309 311 312 313 312 311 311 309 303 302 307 312 306 306 310 311 308 303 298 300 299 293 301 302 292 300 294 294 302 294 298 300 298 306 301 301 303 296 296 305 308 312 311 313 312 312 313 313 315 315 315 316 317 317 320 318 319 319
298 298 299 299 299 300 300 300 300 301 301 301 302 302 302 303 308 308 305 303 303 300 293 294 300 307 308 307 305 307 310 310 311 312 311 311 310 311 309 310 311 315 312 312 310 303 300 298 298 297 298 297 306 297 296 302 300 303 298 296 304 306 303 294 301 299 304 304 306 307 311 311 309 312 314 315 314 314 315 315 316 317 316 317 319 320 318
298 298 299 299 299 299 300 300 301 301 301 301 302 304 305 307 310 307 304 303 299 295 298 294 299 304 306 304 307 309 309 310 312 311 311 310 310 310 311 311 311 312 311 310 308 302 301 299 299 300 304 300 305 304 305 302 303 296 296 301 307 303 298 304 301 294 296 298 303 307 298 297 308 310 312 314 314 314 314 315 315 316 316 316 316 317 319
298 298 298 299 299 299 300 300 301 301 301 301 303 306 309 308 310 310 309 306 302 294 295 296 298 303 308 306 306 308 308 309 310 310 309 310 309 310 311 310 310 309 308 305 300 300 299 298 299 299 299 305 303 299 305 306 305 302 302 303 306 303 303 302 296 297 294 304 308 308 308 309 309 311 312 313 314 314 313 313 313 315 315 317 316 315 315
298 298 298 299 299 299 300 300 300 301 301 301 305 306 308 310 311 310 309 310 307 302 299 299 303 304 296 301 308 307 308 310 309 309 308 308 309 310 312 310 307 307 309 304 301 301 300 299 300 302 301 307 305 299 301 295 294 293 299 305 307 307 309 308 307 306 305 308 309 311 311 307 309 311 311 312 313 313 312 313 314 314 315 316 316 315 314
298 298 299 299 299 300 300 300 300 301 301 303 305 306 303 305 311 310 311 309 307 304 296 294 293 296 306 305 304 305 304 307 308 308 307 306 307 308 305 307 307 308 307 302 302 298 299 300 299 308 308 310 304 300 296 298 296 299 304 306 306 308 309 309 310 307 305 308 310 311 312 310 311 311 312 311 312 313 313 313 313 314 314 315 315 315 315
298 298 299 299 299 300 300 300 300 300 301 304 304 298 296 293 304 311 307 309 309 303 298 298 295 300 299 304 306 302 303 304 306 306 306 306 306 305 305 307 307 307 301 301 301 300 300 299 299 303 307 306 300 299 298 296 293 296 303 304 306 307 307 308 309 310 310 310 311 311 311 311 311 310 311 311 311 313 312 312 311 309 312 313 314 314 314
299 299 299 299 299 299 300 300 300 301 302 302 302 301 304 303 308 309 308 307 308 304 298 295 295 295 294 299 303 305 303 303 305 306 305 306 305 306 306 305 304 306 300 298 299 299 298 298 297 305 305 305 301 300 301 298 293 295 302 305 306 306 307 308 308 309 309 311 311 309 307 308 310 310 307 310 311 312 312 312 312 313 309 312 312 314 314
298 298 298 299 299 299 299 300 301 301 302 303 304 303 303 303 304 305 307 309 306 304 305 297 293 293 292 298 303 303 303 304 304 305 301 305 303 305 302 306 306 304 304 301 297 296 302 298 297 297 302 307 297 297 299 295 298 303 305 304 305 306 306 307 308 308 309 309 309 306 306 306 308 310 311 311 311 310 311 311 311 312 312 311 311 311 312
298 298 298 298 299 300 300 300 301 301 301 302 306 308 310 304 308 304 310 310 306 307 302 296 292 292 291 302 298 301 304 300 300 300 295 302 304 304 299 303 303 296 299 299 299 298 299 297 297 296 301 296 300 296 292 299 304 304 305 305 306 306 307 307 307 307 307 307 308 309 309 309 309 310 310 309 309 310 309 309 309 310 310 310 309 310 311
298 298 298 299 299 300 300 301 303 304 306 308 310 311 308 303 303 307 307 308 300 297 297 296 296 292 292 292 292 297 304 302 298 298 295 298 304 301 302 297 297 295 296 305 297 297 295 296 300 295 293 299 294 291 293 300 301 304 304 305 306 307 306 304 304 306 306 307 307 307 308 308 307 305 306 306 307 308 309 309 309 309 308 308 308 308 309
298 298 299 299 300 301 304 304 305 307 306 307 307 305 303 305 306 309 310 311 305 299 296 294 294 293 294 289 290 295 304 300 301 302 298 296 299 302 302 299 292 295 303 298 294 299 294 300 298 292 294 291 290 295 300 302 302 303 304 304 305 306 305 305 304 305 306 307 307 307 306 307 305 305 305 306 306 306 307 306 307 307 306 306 306 307 308
298 298 300 300 302 305 302 303 311 310 304 304 303 302 302 306 311 310 309 305 308 308 300 295 295 295 296 293 295 296 301 291 298 297 297 294 292 295 296 295 292 293 295 294 293 293 296 303 296 291 291 291 293 301 302 303 302 303 304 304 305 306 305 305 305 306 305 305 305 305 305 305 304 303 304 304 304 304 304 304 305 304 304 305 305 305 306
299 299 300 302 303 297 296 301 307 304 302 302 300 304 307 305 300 300 299 298 304 303 299 303 295 299 301 298 291 299 299 294 300 293 293 295 293 291 294 293 292 293 289 290 293 301 297 294 293 291 290 297 299 301 303 304 304 305 305 305 305 306 305 305 306 305 303 302 302 302 303 303 303 303 303 302 303 303 303 304 304 305 305 304 305 305 305
299 301 303 303 300 295 296 303 305 302 304 306 307 301 297 300 297 293 295 298 296 294 299 299 295 300 298 297 297 302 298 294 294 296 290 296 292 288 292 289 290 292 289 290 293 300 291 291 292 292 290 297 298 300 303 305 304 305 305 306 306 307 306 305 305 305 302 302 302 303 304 302 302 302 303 302 303 304 304 304 304 305 305 304 304 304 305
301 297 295 297 296 299 304 306 303 304 306 300 301 298 292 297 292 289 295 291 292 294 298 293 299 299 300 297 296 296 302 298 291 291 292 294 298 290 291 292 292 290 285 286 289 299 291 287 290 291 289 294 296 301 304 303 303 304 305 306 306 306 306 305 304 306 306 305 306 305 305 305 305 304 303 303 303 303 304 304 304 303 304 303 302 303 303
297 296 297 294 298 299 301 303 306 304 300 295 294 294 292 289 294 294 292 290 290 292 298 298 299 298 300 301 299 294 303 305 303 300 295 290 296 298 291 287 292 288 286 286 291 294 291 289 289 288 289 295 298 300 303 303 305 304 305 306 306 305 305 305 305 305 305 304 304 304 305 305 305 305 305 304 304 304 304 304 303 303 303 303 302 302 304
294 294 296 299 299 301 302 302 299 296 295 296 291 288 291 291 294 292 293 288 289 292 295 297 293 296 296 298 298 300 299 303 301 295 293 289 292 291 288 290 291 287 284 289 294 292 291 286 287 288 292 298 299 302 302 302 303 304 305 305 305 305 305 305 304 304 305 304 304 304 304 305 304 304 304 305 305 305 304 304 303 303 303 303 303 303 303
298 299 299 297 298 297 298 292 295 294 288 288 286 285 289 287 289 288 289 292 297 295 296 302 300 301 303 304 301 303 299 303 296 293 292 289 294 293 289 288 287 284 287 295 291 288 286 286 286 291 298 298 299 300 302 304 304 305 305 305 305 306 305 305 304 304 304 304 305 304 303 304 305 305 305 305 305 305 305 304 303 304 304 303 303 303 302
299 300 296 294 292 294 295 284 294 290 287 289 286 281 285 285 288 290 288 291 294 294 298 296 296 296 293 300 297 295 298 299 296 295 293 294 292 288 287 285 286 291 296 290 289 286 286 289 291 295 298 300 301 300 302 304 305 304 304 304 305 304 304 304 304 303 303 304 305 305 304 304 304 304 305 305 305 304 304 305 305 304 304 304 302 302 302
294 292 292 291 289 292 289 282 293 288 283 286 289 288 288 285 288 290 290 295 297 295 298 298 298 297 294 300 298 298 296 293 295 292 287 291 288 289 287 286 290 291 288 286 288 288 289 288 296 298 298 298 300 301 303 305 305 304 304 304 303 304 304 304 303 303 303 303 303 304 303 303 303 303 304 304 305 305 305 305 305 303 304 304 303 302 302
291 290 291 286 282 288 288 285 287 285 289 291 289 291 291 292 293 293 297 300 297 298 296 298 298 297 294 298 293 293 295 295 292 291 292 292 287 285 290 294 292 287 286 288 285 285 287 293 296 297 299 299 300 302 303 304 305 306 304 302 303 303 303 303 303 302 303 303 304 303 303 303 303 302 303 303 304 304 304 305 306 305 304 303 302 302 303
291 292 292 291 286 288 292 286 286 290 292 293 295 295 295 296 297 298 299 300 297 299 298 300 299 298 295 294 294 294 295 295 290 292 293 287 286 288 292 289 284 286 283 283 285 287 290 295 297 299 300 301 301 302 303 304 304 304 303 303 303 302 302 302 302 302 303 303 304 303 303 302 302 303 303 303 303 304 304 305 306 305 305 304 303 303 303
287 292 293 284 283 288 286 289 296 296 296 297 298 298 299 299 296 295 299 300 300 300 298 298 296 296 295 299 296 292 293 294 290 290 292 289 290 288 286 285 285 287 288 286 287 292 295 296 299 299 301 302 303 302 302 304 304 304 303 303 303 303 302 302 301 302 303 303 303 304 303 303 303 303 303 303 303 303 304 305 305 305 306 305 304 303 303
292 290 287 287 290 290 290 294 294 291 294 296 297 297 297 296 295 298 299 301 299 298 300 298 294 294 291 294 292 291 289 293 287 287 290 289 285 282 283 282 284 283 287 290 292 294 297 299 300 302 302 302 302 304 304 305 304 304 303 303 303 303 303 302 302 302 302 303 304 303 303 303 303 303 303 303 302 303 304 305 305 305 305 304 304 303 303
289 289 290 289 289 290 294 295 293 290 293 294 295 294 296 295 296 297 300 299 300 299 300 297 297 292 292 292 288 290 290 293 290 290 288 286 286 287 286 283 285 286 289 294 295 296 299 300 302 302 302 302 302 303 304 304 302 303 304 304 303 303 303 303 302 302 303 303 303 304 304 304 303 303 302 302 303 304 304 304 304 304 304 305 304 304 303
291 289 290 295 290 289 291 287 288 288 290 292 293 294 295 294 295 296 299 299 299 297 294 292 292 291 290 289 288 285 287 293 289 287 287 287 290 287 285 284 287 293 294 297 299 299 300 301 301 301 302 303 303 304 305 304 304 303 304 304 303 303 303 303 302 302 302 302 303 298 303 303 304 304 304 304 304 303 303 302 303 304 304 304 304 304 303
287 284 285 289 293 293 294 294 293 294 294 295 294 296 296 295 297 296 299 298 296 293 291 294 292 290 287 286 288 291 293 290 287 289 287 289 291 288 288 290 293 296 297 297 298 300 300 303 303 302 304 302 303 305 305 304 304 304 304 304 303 303 302 302 302 302 302 302 303 304 304 304 304 304 304 304 303 302 301 302 302 304 304 304 304 304 304
Wind_Speed
20 21 21 22 21 20 20 20 20 19 20 14 9 9 7 3 4 4 5 7 7 6 7 11 8 8 6 8 7 6 7 7 6 8 5 8 8 9 9 8 6 12 13 19 17 15 12 17 12 14 16 14 15 20 23 22 23 19 15 15 16 3 6 13 12 12 13 13 14 17 17 16 15 16 15 12 14 14 9 8 8 9 9 9 6 7 2
21 22 22 22 22 20 21 20 21 18 16 13 11 8 6 5 5 2 6 5 5 7 8 6 6 7 8 8 10 8 9 9 8 7 7 4 3 6 4 4 9 7 11 14 14 12 10 16 13 13 14 11 14 23 19 24 19 18 14 12 15 5 10 13 13 12 12 14 14 16 17 14 13 13 16 13 13 15 12 11 5 6 12 11 7 8 5
23 22 22 23 22 20 21 21 19 18 17 14 7 7 6 6 4 6 2 5 5 7 6 9 8 10 11 11 12 10 6 5 8 9 9 8 10 10 4 5 5 8 9 15 12 12 11 12 11 12 13 11 17 23 21 27 19 16 16 10 14 10 10 12 14 16 16 18 18 17 17 17 11 14 18 18 16 17 14 11 8 7 10 15 9 7 4
23 23 22 24 23 21 20 19 17 18 17 18 9 6 5 3 5 0 5 5 6 9 10 10 10 9 10 10 9 6 5 4 6 8 9 11 11 9 10 7 6 7 7 10 13 13 13 11 10 13 12 11 12 18 21 23 19 21 10 8 15 9 12 12 11 12 11 11 9 9 13 12 14 17 18 20 18 16 14 10 10 9 6 9 11 9 7
22 23 23 23 24 23 20 18 19 19 20 17 9 6 4 4 3 3 3 3 8 10 7 8 6 4 4 6 3 3 4 6 7 5 5 7 9 7 7 4 9 9 12 11 13 11 14 13 13 14 14 11 12 21 21 20 20 9 10 9 11 8 11 14 13 16 12 13 14 14 16 16 15 16 18 19 20 16 15 11 11 9 7 9 9 13 7
22 23 23 23 24 23 22 19 18 21 22 24 8 6 3 3 2 2 2 5 4 5 5 6 6 9 3 5 1 5 6 5 3 3 8 6 6 5 4 5 10 12 12 13 9 14 13 13 10 16 13 13 16 18 21 19 15 10 14 14 10 9 8 13 10 12 9 11 15 15 17 17 16 16 16 18 18 17 16 14 12 11 7 5 10 13 13
22 22 23 22 24 23 23 20 18 20 23 23 7 6 1 2 4 4 1 4 6 7 12 10 10 11 7 4 3 5 6 7 5 3 3 2 5 6 2 8 13 15 11 9 10 13 11 9 13 12 13 14 16 14 19 19 19 16 12 14 9 8 8 13 12 8 4 6 12 17 16 15 17 17 16 16 17 18 17 13 13 12 9 12 7 8 13
21 21 22 23 23 23 22 23 21 20 24 19 6 5 5 5 5 4 5 6 12 14 9 4 3 6 3 3 4 4 2 4 4 2 2 2 2 3 6 12 12 14 10 8 9 10 9 11 9 12 13 14 13 14 13 15 18 16 14 11 11 10 7 14 12 7 5 4 5 9 14 14 15 16 16 17 16 16 16 13 14 14 10 11 7 5 10
21 21 22 22 22 22 23 23 22 20 20 9 8 5 6 6 6 7 9 10 8 8 8 7 6 3 2 3 2 3 4 4 5 4 1 4 1 3 4 3 5 9 9 6 7 5 8 9 11 10 13 11 13 12 12 16 16 18 13 11 10 10 5 10 11 8 9 6 7 10 10 12 15 16 17 17 17 17 16 13 13 13 11 10 10 7 6
20 20 21 22 22 23 22 22 22 21 21 8 8 6 8 7 7 7 8 6 7 8 9 6 7 5 5 3 3 4 5 6 3 3 2 4 1 3 2 4 8 9 14 11 2 8 7 7 7 6 12 9 11 8 10 13 15 13 11 12 11 9 6 9 9 9 7 11 9 9 10 10 12 12 16 17 17 14 14 15 15 15 11 10 8 8 5
20 20 21 21 22 22 22 22 21 20 15 11 9 8 9 9 9 7 5 7 7 9 10 9 9 5 9 12 7 5 10 9 6 2 1 3 6 5 2 1 4 7 7 3 5 7 8 6 1 5 7 16 14 10 13 15 14 12 12 10 10 10 8 7 10 7 6 9 8 6 7 10 8 2 4 15 17 16 17 16 15 15 14 10 8 9 10
20 20 20 21 21 22 21 20 21 19 16 11 9 8 7 8 8 6 5 6 8 10 9 7 9 11 15 12 7 9 10 10 7 4 6 3 4 6 4 2 1 2 2 3 5 5 5 4 4 6 8 10 9 11 16 17 14 11 10 10 10 9 8 7 9 7 7 8 6 7 8 8 5 2 3 5 3 11 18 14 16 16 16 14 13 10 2
21 21 20 21 21 20 20 19 20 21 19 13 10 10 9 8 7 6 6 6 6 11 11 10 11 14 15 15 11 8 6 5 5 4 4 4 5 4 3 3 3 4 1 2 3 5 6 9 7 9 10 9 9 14 18 17 13 13 12 12 9 6 7 5 7 7 5 6 7 7 6 5 1 3 2 3 1 4 5 12 15 17 15 15 13 9 10
19 19 20 20 20 19 19 19 19 20 20 17 10 9 9 8 8 7 5 5 8 9 13 10 14 16 18 15 12 9 6 5 5 6 5 3 5 3 2 1 3 3 1 2 5 7 7 8 8 9 10 9 8 9 15 17 15 14 14 13 10 11 8 6 7 9 5 5 8 4 4 5 4 2 5 6 12 11 11 7 10 10 12 14 13 13 10
21 19 19 19 19 19 19 18 18 20 19 18 11 9 8 6 6 6 6 5 7 11 7 10 12 15 16 12 11 8 8 8 7 4 5 2 6 6 5 2 3 3 2 4 7 7 6 6 7 7 9 8 8 9 11 10 10 11 12 14 11 10 9 7 6 5 6 4 7 5 3 5 4 1 2 5 2 6 11 9 9 13 14 13 14 14 11
19 20 20 19 19 19 19 19 19 19 18 19 10 8 9 4 3 5 6 6 7 6 8 11 12 12 11 8 11 10 7 6 7 4 5 6 10 3 3 2 2 3 4 5 6 8 6 7 8 9 8 8 9 8 8 10 9 10 8 10 13 13 11 8 7 4 4 4 7 6 7 1 4 4 4 5 2 4 5 9 11 11 16 16 15 13 11
19 19 19 19 19 19 19 19 19 19 19 19 12 9 8 3 2 5 7 5 5 8 11 10 11 9 6 8 10 9 9 5 8 5 4 6 9 8 4 1 2 5 3 3 7 7 8 6 8 6 8 9 9 7 9 9 10 10 11 8 10 11 8 7 9 7 6 6 5 6 2 1 4 4 5 4 5 4 8 10 8 3 8 13 13 12 10
20 20 20 19 19 19 19 18 19 19 18 19 13 10 10 1 2 6 6 6 7 6 5 10 12 9 9 7 8 8 6 6 7 5 3 4 6 7 5 1 3 5 6 7 4 7 7 7 8 7 6 6 8 9 8 10 9 10 13 12 10 7 8 9 9 9 8 8 7 4 3 3 4 6 4 4 3 7 9 10 2 8 6 6 11 12 11
18 19 19 19 19 19 19 19 19 19 19 19 14 10 6 5 3 5 7 7 6 5 10 14 9 6 6 7 7 7 7 7 8 5 4 1 6 8 6 4 3 2 6 2 4 3 4 5 1 6 2 4 6 6 5 8 8 10 12 12 11 9 5 7 8 9 9 7 7 6 2 4 8 6 6 3 5 6 7 4 3 4 3 1 4 9 9
19 20 20 19 19 19 19 19 18 18 18 18 13 9 10 11 1 1 5 7 6 10 14 13 4 7 6 8 8 7 9 6 7 7 6 5 6 8 1 1 1 4 5 5 2 3 3 1 4 8 6 4 4 4 7 4 4 6 11 12 7 9 7 9 9 5 6 6 7 7 8 3 8 11 4 1 3 2 3 2 5 2 2 0 3 5 8
19 19 20 20 19 19 19 19 19 19 19 18 14 10 11 5 1 3 4 7 7 9 7 2 4 10 9 9 10 10 9 9 9 9 8 7 7 4 1 2 4 2 2 3 2 5 3 7 5 3 1 4 6 4 6 6 7 3 3 9 9 10 7 6 6 7 7 8 7 3 2 8 8 7 2 5 4 4 4 4 5 5 3 2 3 4 6
20 19 20 20 20 20 20 20 20 19 19 18 17 10 9 7 7 6 5 4 7 8 8 14 14 13 14 12 12 11 10 10 9 7 7 5 7 6 3 3 7 6 5 5 3 0 1 2 6 6 3 6 5 2 7 5 5 7 2 2 6 3 2 4 2 6 4 1 3 3 3 7 6 6 7 6 7 5 4 5 5 3 5 3 2 5 5
20 20 20 21 20 20 20 20 20 20 20 19 15 9 10 10 8 8 8 8 8 11 13 15 12 13 12 13 13 10 9 7 7 5 6 5 4 4 6 8 6 6 5 5 4 2 5 9 2 4 3 2 3 4 4 3 2 6 6 5 3 2 2 1 4 6 10 6 5 6 4 4 7 6 6 6 5 4 2 2 4 5 5 4 3 5 6
20 21 21 21 21 20 20 20 20 20 20 18 14 10 10 9 10 8 8 8 9 9 9 7 7 2 5 6 3 7 6 6 6 6 4 4 3 2 4 7 8 5 5 6 4 5 6 1 4 4 2 3 5 1 3 3 1 1 3 3 5 2 2 4 5 6 4 1 4 5 6 5 6 6 6 5 3 4 2 3 5 5 5 5 4 4 5
21 21 21 22 21 21 21 21 20 21 20 20 17 11 10 9 6 5 7 5 4 5 4 4 1 7 4 3 1 1 2 3 1 4 4 4 6 5 6 9 7 6 8 8 6 6 2 3 3 2 2 4 4 2 4 4 2 2 2 5 5 6 3 5 8 5 3 3 7 6 5 4 4 4 4 6 5 4 4 3 3 3 3 3 5 2 3
21 21 21 21 21 21 21 21 21 20 21 21 17 11 8 8 7 5 5 6 7 5 4 3 4 1 4 5 5 5 3 2 3 3 4 5 5 5 7 7 6 3 6 5 6 4 3 1 1 1 2 4 3 1 2 7 8 4 4 3 5 4 5 4 7 7 8 5 7 7 7 6 4 3 3 6 5 4 3 3 4 3 4 4 3 3 3
20 21 22 22 22 21 22 21 21 21 21 21 14 10 9 7 5 5 6 6 9 2 4 4 6 6 7 9 5 3 2 2 0 2 2 4 4 4 5 6 6 5 4 2 0 3 2 1 1 4 5 4 4 4 4 2 1 4 5 3 5 5 5 2 3 5 3 2 2 1 2 3 5 5 3 4 3 1 2 1 4 4 4 4 2 3 2
21 22 22 22 22 22 22 22 21 22 22 22 14 9 8 7 4 4 4 5 5 5 8 8 7 9 12 9 5 4 4 1 2 1 1 1 1 4 5 4 5 4 4 4 1 1 2 4 5 1 0 4 5 1 1 2 1 3 3 5 3 3 4 7 3 4 2 5 2 7 3 6 7 4 3 3 1 2 2 1 2 3 3 3 2 3 4
21 22 22 23 22 23 22 21 21 21 23 19 11 9 7 4 3 1 3 4 4 6 7 9 11 9 4 6 6 2 5 2 1 1 2 1 1 3 3 5 5 6 5 3 1 1 3 2 4 4 3 4 4 1 2 2 1 2 4 2 4 7 6 6 2 5 6 7 5 6 5 3 4 6 3 3 3 2 1 3 2 3 3 1 3 3 3
22 23 23 23 23 22 22 21 21 21 21 12 9 6 4 5 4 1 3 3 3 5 5 5 4 3 2 2 5 4 2 3 3 2 1 1 1 2 3 3 3 3 3 2 4 2 2 2 1 4 3 3 5 2 2 2 2 2 0 3 3 1 4 4 4 4 3 5 5 5 4 5 5 5 3 5 4 6 5 4 4 2 4 2 4 3 2
22 23 23 23 22 22 21 21 20 21 18 8 7 4 3 1 4 1 2 3 3 4 4 4 6 5 3 1 2 5 4 2 1 3 3 3 1 2 2 3 2 3 1 1 2 3 2 2 1 2 1 5 3 3 1 2 3 2 5 4 5 2 1 3 3 3 2 3 3 4 5 5 3 2 4 2 2 2 4 2 2 4 7 3 3 2 2
22 23 24 23 23 23 22 22 20 17 10 8 6 4 4 4 5 6 3 5 4 6 4 5 4 2 1 3 1 1 2 1 2 4 3 1 1 2 2 3 3 4 3 2 2 1 3 2 2 3 2 3 3 3 2 1 2 4 3 3 2 2 1 1 1 3 0 1 1 1 2 4 6 5 5 3 2 2 1 2 1 3 1 9 3 1 2
23 24 23 24 24 24 23 22 19 13 9 12 18 16 11 6 6 6 5 4 5 6 5 4 5 2 3 4 2 3 1 4 6 6 4 1 1 2 1 1 2 2 2 3 1 1 1 0 0 1 3 2 2 3 5 4 2 3 4 4 4 4 4 3 3 2 3 3 4 3 5 3 4 2 1 1 2 3 2 3 1 2 3 2 1 2 2
24 23 25 25 26 25 24 22 20 16 12 7 5 4 4 2 5 6 6 5 5 6 3 2 3 4 1 4 4 5 5 6 4 4 2 4 2 5 1 2 2 1 2 3 2 1 1 1 1 1 1 1 1 2 1 5 4 4 4 4 5 5 4 4 3 3 3 3 2 2 3 4 2 1 2 2 2 1 2 2 3 6 6 4 3 2 3
25 25 25 27 26 24 24 21 9 7 5 6 2 6 4 2 5 3 6 5 6 2 3 4 3 6 3 2 1 5 3 7 4 4 3 3 2 2 2 3 2 2 3 2 1 1 1 1 3 3 1 2 1 1 1 4 4 4 4 5 5 4 3 4 4 4 3 2 2 1 0 1 2 2 2 2 4 5 6 6 5 5 4 3 2 2 3
25 26 26 25 27 21 11 7 6 6 6 2 4 4 3 5 5 4 6 6 5 6 4 3 2 4 2 2 2 3 3 3 1 2 4 1 3 2 3 2 2 3 1 3 1 2 1 2 2 1 2 2 1 4 5 3 3 3 5 5 3 2 3 3 3 3 4 4 3 2 2 2 2 2 3 3 3 3 3 4 3 3 3 4 2 1 4
26 26 27 26 13 5 6 3 4 2 4 5 7 9 9 7 2 2 5 5 6 6 5 4 5 2 4 2 1 1 5 1 1 2 3 2 2 1 3 2 3 1 2 2 2 1 2 1 3 1 2 3 3 4 3 3 2 3 4 4 3 3 3 4 3 3 3 1 1 1 1 1 0 2 4 4 3 3 2 1 2 3 3 3 1 3 2
26 27 13 8 6 3 3 2 3 3 9 6 3 3 5 4 2 2 2 3 3 4 3 5 4 3 0 5 2 6 7 0 3 1 2 1 2 2 1 2 3 1 0 2 3 2 1 2 2 2 3 4 3 2 2 2 4 3 3 3 3 3 4 3 3 1 3 7 6 3 0 1 3 3 2 1 2 1 2 3 2 2 2 2 1 1 1
23 11 7 5 5 2 2 4 3 4 5 3 4 2 2 2 2 2 2 2 1 3 3 3 3 3 2 3 2 3 5 3 4 1 2 3 2 2 2 1 2 2 1 2 3 2 2 2 1 2 4 5 5 4 2 2 3 3 3 2 3 4 3 2 2 5 6 8 9 8 7 6 3 1 2 1 1 1 1 0 1 0 2 1 0 1 1
5 6 3 3 1 4 4 2 2 5 3 2 2 2 3 2 3 3 2 2 3 1 1 3 2 3 3 5 4 2 4 6 3 2 1 4 1 2 1 0 2 2 0 1 3 2 2 1 1 2 4 4 5 4 4 3 3 3 3 3 3 3 2 1 2 1 3 4 4 3 0 1 3 2 1 1 1 1 1 3 3 1 1 3 3 0 1
6 6 5 3 7 6 5 8 6 3 2 2 2 2 1 3 3 1 1 4 3 2 1 3 2 3 1 1 3 2 5 2 1 2 3 2 2 3 1 1 0 1 1 2 1 1 1 1 1 3 4 5 4 3 3 4 4 5 4 4 4 4 4 3 2 1 3 2 1 0 2 2 2 1 1 2 2 2 3 2 2 2 2 3 2 2 2
8 8 7 10 10 9 8 4 2 2 2 3 3 3 4 3 1 2 2 4 3 2 6 3 3 1 2 4 4 4 1 2 3 1 3 1 1 2 0 1 1 1 2 2 0 2 1 1 1 3 2 5 3 2 3 3 4 5 4 4 4 3 3 2 1 1 1 1 0 2 2 3 2 1 1 1 1 2 2 2 3 3 4 3 3 3 3
22 17 8 6 4 2 2 2 3 2 2 2 2 2 2 3 3 5 4 2 2 3 2 1 1 2 1 3 3 1 2 2 2 1 1 1 0 1 1 1 1 1 2 1 2 1 1 2 2 3 4 5 2 0 2 3 4 4 5 4 4 4 3 3 3 1 1 1 0 2 1 1 1 2 2 2 2 3 3 3 2 3 3 3 3 4 3
6 2 2 2 2 2 2 3 3 2 3 3 4 4 4 5 6 3 3 4 4 4 2 2 0 4 1 1 4 1 2 3 1 2 0 1 2 1 0 0 2 3 1 2 2 2 1 1 2 5 4 3 1 1 2 4 5 5 5 4 4 3 4 3 3 3 3 1 1 2 2 2 2 2 2 2 2 3 2 4 4 4 3 4 4 3 4
4 2 2 1 2 2 1 1 2 3 5 5 4 6 5 6 4 7 3 3 2 1 0 2 1 2 3 1 2 1 2 1 2 2 0 1 0 0 1 2 1 1 2 1 1 2 1 2 2 5 7 6 5 1 3 4 5 5 5 4 3 3 3 3 4 4 3 3 3 3 2 2 2 2 2 3 3 3 2 4 5 5 3 3 4 5 5
2 3 2 3 1 2 3 3 3 5 4 4 6 7 7 4 4 3 4 2 1 2 2 1 3 2 3 1 2 1 1 2 2 1 1 1 0 1 2 0 1 2 1 1 2 1 2 4 5 6 7 6 4 2 3 4 5 5 5 5 4 4 5 5 3 1 2 2 4 4 3 2 2 2 2 2 3 4 3 2 4 6 6 4 4 5 6
3 2 2 2 3 3 3 5 5 4 4 7 5 3 2 0 1 2 3 1 2 2 2 2 3 3 4 2 2 3 2 1 1 1 1 0 1 1 0 1 1 1 2 2 0 1 2 4 5 6 6 5 3 2 3 5 5 5 4 3 4 4 4 3 2 2 2 4 5 5 4 2 2 3 2 2 2 2 3 2 3 3 4 5 5 4 5
4 1 2 3 4 3 7 6 3 1 1 3 2 4 3 3 5 3 2 2 2 2 2 3 3 2 5 2 3 5 1 3 0 1 1 1 1 0 1 1 1 0 0 0 2 1 4 5 6 6 5 3 2 2 4 5 6 6 4 4 4 4 4 4 3 2 2 4 5 6 5 4 3 2 3 3 3 2 3 3 3 2 3 6 6 5 4
3 2 2 2 2 2 4 5 5 7 5 4 5 6 5 7 4 2 2 2 2 2 2 3 2 3 3 2 3 2 3 1 2 2 1 2 1 2 2 1 1 1 1 2 3 3 4 5 5 4 4 3 2 2 3 4 6 5 3 4 4 4 4 5 4 3 4 4 4 5 5 4 4 3 3 3 3 3 3 2 3 3 3 3 4 5 5
3 3 2 3 3 4 5 3 5 5 5 5 5 6 3 4 3 3 3 3 2 3 3 3 1 2 3 1 3 2 3 3 2 1 2 2 2 2 2 3 3 3 3 2 3 3 4 4 3 3 3 3 2 1 3 5 5 3 4 4 4 4 4 5 4 3 4 5 5 4 5 6 5 4 2 2 3 3 4 4 3 3 3 3 4 4 4
2 2 3 4 4 3 2 5 5 6 6 7 7 4 4 4 3 2 4 5 3 3 3 4 2 3 3 3 2 3 2 1 1 3 3 3 2 2 3 4 2 1 4 2 3 4 3 2 3 4 4 2 2 2 4 5 4 4 5 5 4 4 4 4 3 3 4 5 5 4 5 6 5 4 3 2 4 3 4 4 3 4 4 4 3 4 5
1 3 4 3 5 5 4 3 4 2 3 4 4 2 3 4 1 2 4 5 4 4 3 1 2 2 2 4 3 1 1 2 4 3 5 2 1 2 1 0 2 3 3 2 3 3 3 3 4 4 3 4 2 3 4 5 4 4 4 5 5 5 5 4 3 4 4 4 6 6 5 5 5 4 4 4 4 4 4 3 3 3 3 3 3 3 4
Wind_Direction
350 352 351 348 345 343 344 348 348 348 343 341 336 322 286 277 318 96 157 174 207 231 265 262 252 261 296 313 299 311 292 285 296 289 286 288 248 250 243 266 267 264 204 169 170 183 166 181 173 160 171 157 191 167 178 183 183 188 170 186 176 205 203 165 178 169 172 192 174 196 214 201 197 205 222 199 202 206 220 212 195 208 214 225 205 231 117
349 350 350 349 346 341 343 346 347 344 348 340 317 298 308 321 308 198 179 206 215 256 269 303 297 297 305 304 301 300 287 283 282 268 253 249 268 262 289 240 254 278 186 163 174 174 168 183 164 166 165 156 191 161 176 180 186 192 172 193 156 179 211 168 175 172 164 190 172 190 208 209 205 201 210 217 204 197 219 237 202 211 213 225 215 212 185
348 347 349 347 345 343 343 345 343 342 339 342 320 305 323 297 277 274 191 186 223 250 277 302 302 304 306 309 299 302 292 263 257 259 265 247 255 264 217 246 244 236 216 165 160 170 181 164 170 156 158 161 182 154 179 196 182 191 171 199 145 214 201 175 190 177 178 187 181 187 188 198 194 206 200 213 211 196 198 223 211 213 211 227 223 222 73
347 345 347 346 346 343 344 344 341 338 338 337 323 294 298 308 307 170 259 230 235 252 268 279 283 287 293 292 286 287 278 274 275 259 264 243 250 254 286 268 255 225 198 180 166 157 168 172 162 164 163 148 178 165 188 193 167 195 125 168 163 217 201 190 195 191 195 183 181 188 188 186 201 196 204 199 216 207 204 214 227 218 192 224 217 232 105
345 343 343 347 347 345 345 346 342 340 335 339 326 290 255 315 270 343 296 294 243 254 266 269 263 264 3 297 22 297 265 284 294 211 244 212 224 252 243 245 196 201 185 185 171 160 172 169 169 167 148 164 167 170 179 189 178 121 118 188 177 215 194 198 200 197 202 179 197 182 193 195 200 200 201 203 205 211 203 210 217 218 223 219 209 219 185
345 342 341 346 347 346 346 348 345 342 334 336 323 299 300 298 35 233 315 293 288 277 252 229 256 262 270 268 50 276 293 297 271 175 232 286 253 257 197 231 194 175 176 165 157 167 169 166 169 162 153 157 158 171 178 189 145 144 176 179 199 193 193 193 220 203 201 210 190 187 188 200 197 205 202 204 199 202 212 205 219 205 217 232 190 211 216
344 341 342 345 347 349 346 347 350 343 336 329 286 330 343 270 316 289 331 277 282 273 281 284 276 281 251 264 221 275 277 289 274 273 145 207 207 249 204 200 209 186 178 158 161 166 153 172 168 160 156 160 160 166 168 187 160 176 179 184 200 208 191 188 216 184 136 251 219 180 185 192 198 204 200 205 201 202 209 202 209 225 215 246 268 201 227
343 342 344 345 346 349 351 351 353 345 339 323 347 36 336 357 336 315 328 269 279 280 276 259 221 253 258 251 205 213 264 269 293 204 288 179 121 16 259 181 196 196 176 156 162 151 150 158 144 150 155 151 171 160 173 167 167 182 182 187 183 233 170 187 192 178 183 211 253 173 196 188 201 200 202 205 206 203 203 203 204 220 235 227 245 263 213
343 343 344 341 345 348 352 355 354 346 340 347 354 348 29 321 312 312 309 308 290 291 306 302 296 216 178 231 213 204 225 260 243 120 338 86 123 211 193 178 216 208 210 138 44 50 126 139 145 151 155 163 163 159 170 167 168 177 178 192 168 223 195 179 191 199 176 190 202 205 218 208 205 202 203 202 201 203 198 206 198 212 214 216 222 220 214
342 343 342 342 345 347 350 356 357 354 336 342 345 333 345 325 323 312 301 292 286 297 319 324 347 0 317 224 223 226 183 191 199 66 353 205 13 359 317 196 188 169 193 129 32 5 351 67 31 123 155 155 148 161 154 167 168 175 171 184 181 199 204 186 191 209 185 183 196 197 221 212 215 212 203 203 203 207 203 207 203 212 215 214 215 224 226
344 342 341 344 345 345 350 353 354 358 350 354 339 326 341 353 331 323 300 296 317 343 339 348 356 328 328 15 73 78 74 76 57 89 350 18 25 4 21 263 186 163 169 69 336 313 312 316 305 170 169 146 160 167 162 168 175 171 170 171 182 185 194 186 187 209 182 172 180 175 206 212 208 136 242 210 205 197 208 200 204 203 210 224 218 227 236
344 342 342 345 344 345 348 352 352 355 356 341 333 315 344 340 321 314 311 321 312 326 353 346 348 355 2 356 15 47 50 51 69 79 92 45 25 21 16 79 36 154 61 320 315 286 286 258 220 152 141 132 159 157 158 168 170 166 161 178 174 195 196 194 177 206 162 159 173 194 207 211 51 302 52 39 18 209 204 203 201 207 203 220 223 208 231
343 344 341 340 340 342 347 349 350 352 352 342 333 322 338 343 328 326 316 308 305 336 346 347 12 2 357 360 11 37 52 92 87 80 84 101 74 58 24 16 29 66 266 247 241 242 196 159 156 154 141 149 155 151 156 169 166 179 167 181 180 183 198 183 178 204 127 174 181 197 201 69 176 7 3 14 142 61 207 212 200 202 202 207 224 220 198
339 339 339 339 340 343 346 346 349 350 347 344 332 322 322 338 344 330 327 327 312 326 324 343 1 356 350 352 358 7 12 43 88 77 77 37 83 61 46 345 2 329 304 237 240 199 169 163 155 159 162 150 140 158 167 171 171 184 170 180 181 179 197 222 185 205 172 185 199 181 95 179 152 233 215 201 201 198 197 202 202 203 212 211 217 218 210
338 339 339 338 342 345 345 346 346 345 345 344 328 317 319 333 333 323 301 299 306 306 341 5 341 336 335 345 4 5 15 15 351 93 93 96 69 36 52 353 326 294 279 263 177 187 177 158 151 163 157 159 158 157 168 170 174 191 182 181 184 188 211 197 211 182 246 204 201 185 206 225 181 331 88 174 262 225 211 222 227 209 218 221 218 216 201
336 338 338 340 343 344 344 346 346 345 344 343 331 328 316 334 325 305 295 302 314 325 7 346 342 330 330 355 6 7 6 355 354 332 84 64 112 190 275 227 237 266 241 273 183 173 168 167 163 163 164 174 156 149 178 158 173 182 213 205 193 189 220 209 220 176 199 230 215 206 219 103 326 107 134 146 120 197 161 212 233 206 214 209 217 217 198
337 339 339 339 342 342 342 343 345 346 346 346 336 324 312 334 316 319 311 300 301 284 301 343 340 331 341 8 4 16 2 5 359 1 13 14 42 68 88 137 163 223 89 328 186 176 172 183 188 165 160 165 161 175 159 167 163 170 185 207 219 201 203 209 214 218 200 221 223 215 218 153 156 151 145 136 176 124 179 207 214 155 218 198 205 206 191
337 337 337 337 338 340 340 343 346 346 344 344 333 325 304 259 295 307 281 302 316 292 329 12 345 350 9 351 332 341 334 345 344 336 350 360 41 28 24 61 168 118 130 216 160 175 176 178 173 174 142 163 160 174 180 169 166 171 176 185 188 204 212 209 215 214 198 204 231 215 122 108 136 108 118 118 181 189 197 204 79 350 325 210 197 201 188
334 336 337 337 336 338 339 341 343 343 343 342 336 318 319 330 312 322 305 299 302 282 295 321 304 293 325 314 300 323 346 337 326 338 3 70 35 355 336 59 327 177 44 355 191 173 182 157 115 67 83 137 154 178 148 174 169 171 173 179 186 186 204 206 225 217 217 202 222 228 128 117 136 109 104 118 162 173 193 62 257 331 311 228 222 196 172
335 335 336 335 335 336 337 338 340 342 343 345 338 322 307 304 308 302 304 308 312 289 289 290 303 303 323 309 316 331 338 341 5 347 11 20 12 349 272 16 229 329 230 188 99 336 48 357 175 171 182 167 118 89 112 284 306 194 177 180 195 171 191 198 204 220 235 215 218 225 218 177 186 136 121 81 261 76 341 119 56 350 13 177 132 160 150
334 334 334 334 333 334 335 336 338 340 341 343 342 323 315 310 290 266 268 292 295 305 298 137 342 306 304 295 293 301 304 312 330 339 344 336 345 321 44 2 7 63 16 350 107 124 181 187 111 351 112 178 142 205 142 161 170 39 312 191 196 163 198 193 203 207 219 205 216 210 27 131 167 189 205 124 64 71 54 36 71 34 43 104 143 124 132
333 332 333 333 332 332 333 333 334 336 338 341 334 315 300 331 326 317 294 289 275 256 267 297 302 287 277 269 267 272 281 296 313 314 311 326 324 349 8 350 28 19 21 359 280 262 309 29 125 156 206 123 208 134 129 164 178 160 171 260 188 165 250 32 273 179 233 8 88 108 72 85 75 72 100 86 86 81 45 41 56 59 64 15 77 120 143
329 328 331 330 330 331 331 331 331 333 335 338 333 322 309 311 315 334 314 290 275 270 267 267 267 265 259 253 245 252 262 271 285 282 275 307 324 26 21 12 27 357 46 26 17 275 287 344 351 11 71 101 92 137 188 295 119 146 194 195 34 112 321 150 260 87 102 88 56 96 120 137 105 73 75 97 105 94 60 47 104 78 64 44 79 127 144
325 326 328 328 328 330 329 329 330 330 332 333 331 315 309 307 296 300 298 283 277 297 281 222 252 3 14 25 148 196 237 252 246 270 295 290 315 8 42 30 352 306 42 21 343 312 331 280 336 326 84 32 342 237 191 169 90 34 105 182 166 139 168 224 211 91 204 210 213 109 94 138 142 109 94 100 99 63 18 40 54 65 55 66 73 111 141
324 324 326 326 327 328 328 327 328 329 329 330 326 304 290 283 286 340 318 325 330 333 318 313 43 8 348 34 29 257 205 296 226 227 234 240 262 310 331 351 340 327 327 330 315 293 256 320 223 205 101 67 66 336 67 137 125 24 205 173 168 169 201 232 220 169 227 131 131 102 105 112 152 144 129 129 103 83 63 36 42 51 71 57 70 87 115
322 322 323 324 324 325 326 325 326 326 327 327 321 308 305 297 310 297 274 259 257 264 304 323 22 298 16 347 17 5 31 310 314 248 239 246 258 292 312 319 315 269 276 291 301 301 319 281 350 348 293 97 307 255 29 13 100 123 26 330 308 52 163 221 193 217 115 93 100 120 112 115 128 173 58 43 59 71 62 43 51 50 72 82 93 34 105
320 320 321 322 323 324 324 324 324 324 324 325 317 299 290 291 292 284 287 321 322 250 230 284 330 327 353 343 328 292 174 144 176 297 238 255 275 268 273 292 308 306 298 286 354 305 268 277 343 28 11 33 333 8 345 162 82 158 149 199 224 218 194 130 174 222 191 31 50 57 182 149 114 133 162 135 95 347 23 84 68 42 55 70 90 129 80
318 319 320 320 321 322 322 322 322 323 323 322 304 284 277 276 280 283 269 262 293 311 311 304 297 316 314 273 334 324 54 93 112 243 284 194 263 308 309 325 321 333 353 333 258 252 33 11 35 68 38 37 317 132 334 24 332 237 132 110 357 45 37 349 359 352 64 99 70 85 94 49 48 67 45 26 26 261 268 42 25 52 21 16 94 145 173
318 317 318 318 318 319 320 320 320 321 323 319 298 285 258 231 287 266 271 269 275 295 296 288 279 268 333 36 309 339 78 70 81 325 30 109 252 273 300 1 0 0 330 332 1 14 33 75 27 0 23 11 300 273 192 210 195 67 38 346 68 55 13 57 62 93 42 26 56 31 61 89 123 88 98 114 47 355 150 20 354 314 306 256 240 244 224
316 316 315 315 315 316 317 317 318 319 324 312 296 282 272 162 168 240 44 304 274 298 307 323 315 50 346 260 343 354 41 74 43 4 310 24 11 312 8 1 30 2 346 343 331 42 46 67 54 72 66 341 308 325 276 307 82 80 282 28 40 99 93 61 30 53 73 35 44 47 78 102 118 145 121 62 36 342 16 43 11 300 218 244 268 234 239
315 314 313 312 314 313 313 313 314 318 314 297 295 289 291 242 99 149 98 267 262 288 294 286 276 302 282 112 291 355 360 49 359 40 24 11 16 352 23 286 62 334 356 17 7 40 306 58 40 111 131 42 346 287 23 262 125 219 53 20 41 0 36 81 95 94 55 54 54 98 125 94 90 109 66 51 87 157 138 120 123 352 354 310 225 275 197
313 313 311 312 311 311 308 308 310 311 298 277 276 314 347 350 349 357 4 271 282 260 290 301 294 243 301 151 110 8 315 22 214 207 161 44 13 30 47 4 41 28 15 356 3 294 42 16 340 23 357 56 304 300 269 342 39 79 95 83 74 96 112 91 131 87 42 155 73 270 138 84 45 11 81 84 76 86 30 84 76 91 287 291 222 189 251
312 311 310 309 308 307 306 302 302 302 283 293 306 296 270 263 295 282 231 252 247 268 285 284 283 314 263 62 161 128 328 227 225 233 125 44 85 295 79 352 162 122 71 265 358 33 41 353 314 245 68 296 287 306 58 30 71 71 58 72 78 48 56 53 63 55 54 60 20 6 34 38 95 110 40 56 38 19 313 243 77 286 237 194 224 247 227
311 311 309 307 305 304 301 301 297 290 266 255 241 195 120 101 231 209 285 257 279 281 280 270 277 279 284 114 232 87 315 321 78 326 120 87 78 246 121 171 61 355 359 308 98 193 149 282 306 28 209 207 309 302 73 108 101 108 104 118 113 112 117 121 105 91 60 32 26 35 25 42 47 241 236 265 260 216 324 335 270 238 229 227 197 212 179
310 308 306 302 301 300 298 292 275 217 236 241 229 79 78 112 327 268 218 275 290 245 227 237 252 277 268 182 189 68 3 290 24 33 341 97 272 326 211 199 118 263 92 313 227 300 87 29 6 249 167 83 226 224 79 110 111 114 132 114 104 109 127 105 73 60 61 66 66 65 52 239 254 288 309 323 291 303 294 281 249 255 262 244 227 136 223
308 305 301 300 298 293 278 229 229 231 232 296 36 43 5 292 192 216 223 245 265 306 295 294 282 281 338 308 35 65 305 248 143 210 68 290 173 116 291 280 135 68 30 283 8 126 64 72 256 179 88 225 44 6 49 50 78 76 80 88 92 82 57 66 104 90 61 35 16 359 343 318 352 347 306 308 316 314 315 296 303 298 281 261 275 273 242
302 301 301 297 283 220 230 221 137 18 23 340 326 328 303 284 206 214 202 239 217 231 286 305 288 329 4 356 207 64 303 336 325 227 56 344 43 58 280 248 71 81 230 174 77 22 79 203 280 286 57 28 53 36 12 347 83 114 103 104 102 91 122 119 96 87 95 61 263 197 146 145 60 344 342 354 356 341 289 305 357 328 276 258 218 245 255
301 299 295 277 242 235 225 171 59 2 308 275 239 239 196 210 239 198 202 238 176 186 232 247 272 301 220 284 31 30 290 96 272 355 112 41 258 131 352 356 59 267 127 68 59 5 344 249 259 84 90 63 60 44 58 60 77 77 113 131 134 143 123 130 179 221 230 188 171 107 242 25 356 4 344 17 343 320 15 9 353 335 338 354 10 280 241
290 279 259 243 246 227 6 45 20 304 284 210 244 275 228 188 253 230 220 179 165 231 210 251 267 296 306 281 99 48 355 331 302 300 73 77 324 60 291 172 117 266 181 161 119 246 230 154 198 153 100 128 128 92 128 81 105 141 120 137 132 144 144 163 18 15 13 32 31 33 356 345 336 1 35 14 33 18 336 30 350 57 60 41 246 239 230
347 330 328 284 248 28 322 84 115 281 242 243 201 257 276 213 241 244 173 238 219 204 214 227 230 309 345 330 337 110 45 318 352 25 15 105 350 340 99 351 88 277 38 76 78 282 292 120 217 157 96 79 78 117 151 156 156 118 142 139 157 144 184 144 111 54 351 4 21 33 105 306 1 360 70 90 15 350 52 56 53 38 38 52 17 43 134
357 340 309 326 351 326 325 313 296 245 246 234 214 208 267 261 229 284 269 250 229 147 226 291 255 231 232 259 275 339 94 303 331 354 309 52 45 273 286 64 358 280 69 74 85 267 274 41 36 60 68 55 62 119 155 166 169 160 171 171 166 174 185 160 129 319 297 285 153 344 13 11 64 45 64 85 62 26 27 55 87 78 83 106 125 113 111
333 307 309 303 293 281 282 253 239 231 235 237 241 239 226 249 219 224 240 248 198 172 171 218 244 341 62 343 344 323 95 52 311 300 285 72 32 307 101 134 211 278 65 66 78 244 257 99 107 93 88 72 53 136 170 173 156 171 159 184 168 193 192 199 209 228 323 312 35 51 20 45 59 71 57 87 69 76 79 69 80 98 103 100 88 100 134
282 265 246 289 284 248 236 248 188 233 209 179 214 264 233 230 224 233 197 217 20 268 108 260 295 289 217 274 220 269 357 11 296 260 309 51 146 250 311 139 238 125 78 151 247 235 105 93 75 79 80 71 30 318 186 176 154 164 158 188 172 187 206 194 211 143 255 297 55 83 76 93 112 69 72 96 94 84 82 85 81 89 101 105 111 111 121
287 290 255 246 259 245 195 234 184 202 239 217 185 216 209 234 220 205 244 186 161 211 98 257 53 301 215 117 310 146 191 190 223 267 64 129 251 104 235 169 72 72 177 222 241 107 85 59 9 51 42 58 73 291 197 169 161 170 153 181 186 173 207 213 183 171 220 189 158 141 111 107 107 104 99 81 94 93 94 103 87 76 86 109 111 113 110
274 231 220 243 234 176 128 272 186 221 220 218 224 227 206 214 209 213 190 70 251 110 182 231 296 295 299 80 245 208 287 56 129 260 89 276 299 4 312 83 99 204 235 176 140 111 157 125 105 73 34 16 27 68 174 176 166 168 155 187 172 182 196 203 197 216 219 207 169 178 140 118 117 104 110 110 84 69 79 100 116 115 96 89 102 114 121
264 262 219 198 248 245 207 217 181 213 229 224 215 222 236 252 334 44 55 246 213 188 223 7 293 278 277 101 296 359 161 269 262 86 3 262 131 83 43 51 258 240 247 134 108 119 82 59 38 37 23 11 8 58 151 171 159 152 160 186 171 178 176 192 193 255 262 190 179 187 156 121 104 112 108 115 125 114 94 81 99 119 120 110 109 117 128
256 240 256 280 271 217 213 220 204 213 235 225 230 252 264 272 287 20 33 345 250 25 313 291 293 320 305 310 255 209 230 274 253 48 276 279 76 102 310 263 192 158 112 96 57 52 80 55 51 43 24 14 40 115 156 155 169 164 185 157 169 179 175 172 164 163 202 208 185 175 165 143 109 107 113 121 117 108 98 96 78 88 110 115 110 107 114
268 254 265 235 223 197 200 222 229 254 249 268 267 240 230 228 225 180 81 8 349 288 297 309 263 220 234 193 262 292 223 151 271 160 331 15 125 243 161 228 194 102 271 230 109 17 59 56 45 36 34 21 56 129 152 162 151 175 179 152 171 174 188 166 191 167 183 191 184 180 164 154 152 128 104 98 107 126 153 130 114 127 110 108 115 128 131
300 300 254 248 269 247 244 213 212 232 217 231 251 243 221 225 220 86 15 300 283 268 312 295 327 324 264 188 241 219 251 164 228 178 161 229 175 168 191 193 209 181 218 292 63 48 45 65 61 44 44 40 73 144 143 151 167 185 159 157 168 177 179 173 169 180 201 181 192 178 182 174 184 168 133 132 123 117 120 136 152 134 121 122 126 130 128
244 224 237 252 245 241 250 247 243 240 219 219 226 224 222 231 178 77 349 298 309 292 245 221 273 266 294 346 241 233 257 180 232 179 219 195 183 206 196 151 201 209 128 62 44 56 51 64 85 77 56 61 68 124 146 150 185 178 143 158 159 174 173 168 176 201 221 188 182 194 184 187 198 189 177 140 103 108 126 135 140 144 133 131 132 138 126
223 272 269 277 273 291 237 227 236 231 213 217 214 207 224 221 220 50 17 311 294 264 247 235 200 228 237 221 267 230 233 49 257 224 220 192 190 187 184 181 189 47 64 39 36 42 37 44 46 71 91 88 97 124 142 155 177 152 147 154 158 160 158 184 191 196 212 188 178 183 193 199 195 186 176 164 133 140 122 121 139 134 122 129 140 138 134
244 231 238 216 229 265 269 316 336 295 252 219 206 173 266 220 127 340 327 296 278 257 236 221 232 226 235 234 220 273 7 227 241 235 238 178 149 224 188 358 44 32 36 359 28 44 48 55 66 50 48 82 109 137 140 162 181 141 151 150 156 162 175 171 169 170 182 189 182 191 192 184 174 177 182 173 160 158 148 149 136 131 146 141 126 127 135